STARLINK-32599, 62048

Orbit data source: Space-Track

STARLINK-32599, 62048 is a payload satellite owned by SpaceX/Seattle (US) in LEO that was launched on Thu, 21 Nov 2024 UTC via an FALCON 9 launch vehicle from the Air Force Eastern Test Range (AFETR). Payloads include a variety of satellites, spacecraft, and rockets equipped with specific instruments for various scientific and technological missions. These include communications satellites like Starlink; space stations such as the ISS; scientific satellites like the Hubble; Earth observation satellites from companies like Planet Labs, Umbra, and HawkEye 360; GPS; miniature CubeSats for education and research; and military/defense satellites.

Loading next visibility...
STARLINK-32599 details
Identifier
62048, 2024-216S
Orbit
LEO
Last TLE update9 hours ago
Origin
Flag of USSpaceX/Seattle (US)
ManufacturerSpaceX/Seattle
MissionOperational spacecraft
Bus & MotorSTARLINK V2M, Unknown motor
Mass730 kg wet, ~700 kg dry
Launch date (UTC)
2024-11-21 (3 weeks ago)
Launch vehicle
FALCON 9
Launch site
Air Force Eastern Test Range (AFETR)
Object type
Payload
Rocket body
Debris
Shape & HBRUnknown
Radar Cross SectionLarge (>1 m²)

Expand to show TLE details & history

TLE from 9 hours ago
0 STARLINK-32599
1 62048U 24216S   24348.50002315 -.00009695  00000-0 -15959-3 0  9995
2 62048  42.9996 307.3483 0001157 279.3435 201.5733 15.50588790  4582
Epoch: 2024-12-13T12:00Z
Definitive object data (Epoch: 2024-12-13T12:00:02Z)
Latitude35.94935°
Longitude174.01907°
Altitude417.364 km
Speed7.666 km/s
True Right ascension05h 06m 46s
True Declination35° 46' 40"
Sunlit
Object was in full shadow at TLE epoch
Visualization TLE readout
Latitude30.6088°
Longitude-176.7139°
Altitude416.373 km
Speed7.666 km/s
Apparent Right ascension06h 41m 41s
Apparent Declination-3° 29' 13"
Sunlit
Object is in full shadow
Visualization observer readout
Local Sidereal Time19:51:07
Azimuth27.81° NE
Elevation-50.328°
Doppler factor1
Orbital elements
Apogee altitude417.757 km
Perigee altitude416.184 km
Semi-major axis6,795.108 km
Eccentricity0.0001157
Inclination42.9996°
RAAN307.3483°
Arg. of periapsis279.3435°
True anomaly201.56843°
Mean anomaly201.5733°
Eccentric anomaly201.57086°
Mean motion3.87479 °/min
BSTAR-0.00015959
Orbital period92.91 mins
Loading maneuver chart data...
Loading historical data...
Loading historical data...
Loading historical data...
Loading historical data...
Loading historical data...
Loading historical data...
Loading historical data...

STARLINK-32599 Visibility forecast

Observer location: undefined°, undefined

Span
Click to sort rows by Start time (UTC) header in descending order
Start Az.
Max El. time (UTC)
Max El. Az.
Max El.
End time (UTC)
End Az.
4 mins2024-12-14 01:39:24.787Z237.976° WSW2024-12-14 01:41:24.787Z99.991° ESE40.846°2024-12-14 01:43:24.787Z75.482° E
5 mins2024-12-14 03:16:24.787Z286.75° WNW2024-12-14 03:18:24.787Z350.82° N36.889°2024-12-14 03:21:24.787Z71.019° E
5 mins2024-12-14 04:54:24.787Z296.486° NW2024-12-14 04:56:24.787Z47.529° ENE41.534°2024-12-14 04:59:24.787Z97.094° ESE
4 mins2024-12-14 06:32:24.787Z245.534° WSW2024-12-14 06:33:24.787Z210.405° SW27.905°2024-12-14 06:36:24.787Z145.091° SSE
|